Weather History for Moffett NAS, CA

Change the Weather History Date:

Monday, September 24, 2012

  Actual Average Record
Temperature  
Mean Temperature 64 °F 67 °F  
Max Temperature 73 °F 77 °F 95 °F (1978)
Min Temperature 54 °F 57 °F 43 °F (1945)
Degree Days  
Heating Degree Days 1    
Month to date heating degree days 25  
Since 1 July heating degree days 42  
Cooling Degree Days 0    
Month to date cooling degree days 15  
Year to date cooling degree days 249  
Growing Degree Days 13 (Base 50)    
Moisture  
Dew Point 53 °F    
Average Humidity 71    
Maximum Humidity 93    
Minimum Humidity 49    
Precipitation  
Precipitation 0.00 in 0.01 in 0.21 in (1986)
Month to date precipitation T 0.13  
Year to date precipitation 5.51 9.79  
Since 1 July precipitation T 0.16  
Sea Level Pressure  
Sea Level Pressure 29.95 in    
Wind  
Wind Speed 4 mph (NNW)    
Max Wind Speed 13 mph    
Max Gust Speed 15 mph    
Visibility 10 miles    
Events      
T = Trace of Precipitation, MM = Missing Value Source: NWS Daily Summary

Daily Weather History Graph

Daily Weather History Graph

Search for Another Location

Airport:

Trip Planner

Search our weather history database for the weather conditions in past years. The results will help you decide how hot, cold, wet, or windy it might be!

Date:

Astronomy

Sep. 24, 2012 Rise Set
Actual Time 6:58 AM PDT 7:01 PM PDT
Civil Twilight 6:32 AM PDT 7:27 PM PDT
Nautical Twilight 6:01 AM PDT 7:57 PM PDT
Astronomical Twilight 5:30 AM PDT 8:28 PM PDT
Moon 3:45 PM PDT (9/24) 1:26 AM PDT (9/24)
Length of Visible Light 12h 54m
Length of Day
12h 02m
Waxing Gibbous, 71% of the Moon is Illuminated
Sep 24
Waxing Gibbous
Sep 29
Full
Oct 8
Last Quarter
Oct 15
New
Oct 21
First Quarter

Hourly Weather History & Observations

Time (PDT) Temp. Dew Point Humidity Pressure Visibility Wind Dir Wind Speed Gust Speed Precip Events Conditions
12:54 AM 59.0 °F 55.4 °F 88% 29.95 in 10.0 mi North 10.4 mph - N/A   Scattered Clouds
12:56 AM 59.0 °F 55.0 °F 87% 29.96 in 10.0 mi NNW 8.1 mph - N/A   Scattered Clouds
1:56 AM 57.9 °F 53.1 °F 84% 29.94 in 10.0 mi SE 3.5 mph - N/A   Clear
2:56 AM 57.9 °F 54.0 °F 87% 29.95 in 10.0 mi NW 3.5 mph - N/A   Clear
3:56 AM 55.0 °F 51.1 °F 86% 29.94 in 10.0 mi North 3.5 mph - N/A   Clear
4:56 AM 55.9 °F 53.1 °F 90% 29.95 in 10.0 mi Calm Calm - N/A   Clear
5:18 AM 53.6 °F 51.8 °F 94% 29.95 in 10.0 mi North 5.8 mph - N/A   Partly Cloudy
5:44 AM 55.4 °F 51.8 °F 88% 29.95 in 10.0 mi NNE 5.8 mph - N/A   Mostly Cloudy
5:56 AM 54.0 °F 52.0 °F 93% 29.96 in 10.0 mi North 3.5 mph - N/A   Overcast
6:03 AM 55.4 °F 51.8 °F 88% 29.95 in 10.0 mi North 3.5 mph - N/A   Overcast
6:44 AM 55.4 °F 51.8 °F 88% 29.96 in 10.0 mi Calm Calm - N/A   Mostly Cloudy
6:56 AM 55.9 °F 53.1 °F 90% 29.97 in 10.0 mi Calm Calm - N/A   Mostly Cloudy
7:56 AM 57.0 °F 52.0 °F 83% 29.99 in 10.0 mi Calm Calm - N/A   Mostly Cloudy
8:56 AM 57.9 °F 52.0 °F 81% 29.99 in 10.0 mi Calm Calm - N/A   Mostly Cloudy
9:16 AM 60.8 °F 51.8 °F 72% 29.99 in 10.0 mi Calm Calm - N/A   Scattered Clouds
9:56 AM 61.0 °F 52.0 °F 72% 29.99 in 10.0 mi Calm Calm - N/A   Scattered Clouds
10:56 AM 64.0 °F 52.0 °F 65% 29.98 in 10.0 mi North 6.9 mph - N/A   Clear
11:56 AM 66.9 °F 52.0 °F 59% 29.96 in 10.0 mi North 6.9 mph - N/A   Clear
12:56 PM 69.1 °F 51.1 °F 53% 29.96 in 10.0 mi North 6.9 mph - N/A   Clear
1:56 PM 71.1 °F 51.1 °F 49% 29.93 in 10.0 mi North 9.2 mph - N/A   Clear
2:56 PM 73.0 °F 54.0 °F 51% 29.91 in 10.0 mi North 10.4 mph - N/A   Clear
3:56 PM 72.0 °F 57.0 °F 59% 29.90 in 10.0 mi North 11.5 mph - N/A   Clear
4:56 PM 71.1 °F 55.0 °F 57% 29.90 in 10.0 mi NW 8.1 mph - N/A   Clear
5:56 PM 68.0 °F 54.0 °F 61% 29.90 in 10.0 mi NW 8.1 mph - N/A   Clear
6:56 PM 66.0 °F 55.0 °F 68% 29.91 in 10.0 mi NW 5.8 mph - N/A   Clear
7:56 PM 64.9 °F 55.0 °F 70% 29.91 in 10.0 mi NW 3.5 mph - N/A   Clear
8:56 PM 64.0 °F 55.0 °F 73% 29.92 in 10.0 mi West 3.5 mph - N/A   Clear
9:56 PM - - N/A% 29.94 in 10.0 mi WNW 3.5 mph - N/A   Clear
10:56 PM 61.0 °F 55.0 °F 81% 29.93 in 10.0 mi Calm Calm - N/A   Clear
11:56 PM 61.0 °F 55.0 °F 81% 29.92 in 10.0 mi Calm Calm - N/A   Clear